�N����,����,�~����,�C��,���x,�C��,����,���ϕ���,�ő�u�ԕ���,�ő厞����,���˗�,�I�_���x,�n�����x,�ő啗���N��,DTYPE
"20/07/25","00:10",0.0,23.7,94.9,1002.6,9.7,0.7,1.7,351.7,0.00,22.9,24.8,"00:06:32",1
"20/07/25","00:20",0.0,23.5,95.0,1001.9,330.8,0.5,1.0,352.2,0.00,22.7,25.0,"00:12:08",1
"20/07/25","00:30",0.0,23.5,95.1,1002.2,276.5,0.6,0.9,320.9,0.00,22.7,25.1,"00:20:08",1
"20/07/25","00:40",0.0,23.5,95.1,1002.2,280.8,0.7,1.3,311.4,0.00,22.7,25.0,"00:32:16",1
"20/07/25","00:50",0.0,23.6,95.1,1002.4,314.1,0.6,1.2,279.5,0.00,22.8,24.9,"00:43:52",1
"20/07/25","01:00",0.0,23.6,95.2,1001.9,346.6,0.6,1.0,354.6,0.00,22.8,24.9,"00:57:04",1
"20/07/25","01:10",0.0,23.5,95.2,1001.7,300.4,0.5,0.9,256.8,0.00,22.7,24.8,"01:04:56",1
"20/07/25","01:20",0.0,23.4,95.3,1001.9,326.3,0.7,1.7,346.5,0.00,22.6,24.9,"01:13:04",1
"20/07/25","01:30",0.8,23.4,95.3,1001.9,250.4,0.6,1.2,233.9,0.00,22.6,25.0,"01:24:56",1
"20/07/25","01:40",0.2,23.4,95.3,1001.7,335.3,0.7,1.7,330.4,0.00,22.6,24.7,"01:39:12",1
"20/07/25","01:50",0.0,23.3,95.4,1002.2,300.1,0.7,1.8,343.9,0.00,22.6,24.8,"01:40:16",1
"20/07/25","02:00",0.0,23.3,95.5,1001.7,302.8,0.3,0.8,355.0,0.00,22.6,24.7,"01:58:24",1
"20/07/25","02:10",0.0,23.3,95.5,1002.2,269.4,0.2,0.5,323.7,0.00,22.6,24.8,"02:04:40",1
"20/07/25","02:20",0.0,23.3,95.5,1002.2,275.9,0.5,1.2,257.1,0.00,22.6,24.7,"02:17:20",1
"20/07/25","02:30",0.2,23.3,95.5,1002.4,266.4,0.5,0.9,265.8,0.00,22.6,24.8,"02:22:16",1
"20/07/25","02:40",0.8,23.3,95.6,1002.9,322.6,0.2,0.8,8.6,0.00,22.6,24.9,"02:36:24",1
"20/07/25","02:50",1.0,23.3,95.7,1003.1,323.6,0.5,1.2,5.7,0.00,22.6,24.9,"02:47:52",1
"20/07/25","03:00",0.8,23.3,95.6,1002.9,47.9,0.3,0.9,58.1,0.00,22.6,24.7,"02:55:20",1
"20/07/25","03:10",0.6,23.2,95.7,1003.1,312.1,0.6,1.1,356.4,0.00,22.5,24.9,"03:06:56",1
"20/07/25","03:20",1.8,23.2,95.7,1003.1,286.2,0.6,1.4,343.0,0.00,22.5,24.7,"03:10:40",1
"20/07/25","03:30",2.6,23.2,95.8,1002.6,346.3,0.8,1.4,50.2,0.00,22.5,24.7,"03:28:46",1
"20/07/25","03:40",1.0,23.1,95.9,1002.4,8.6,0.6,1.4,69.5,0.00,22.4,24.6,"03:34:04",1
"20/07/25","03:50",0.8,23.0,96.0,1002.2,292.8,0.6,1.4,235.1,0.00,22.4,24.8,"03:48:56",1
"20/07/25","04:00",0.4,23.1,96.0,1001.9,223.9,1.2,1.9,232.0,0.00,22.5,24.5,"03:56:56",1
"20/07/25","04:10",0.4,23.2,96.0,1002.4,232.0,0.6,1.9,210.3,0.00,22.6,24.3,"04:09:12",1
"20/07/25","04:20",5.2,23.2,96.0,1003.1,235.5,0.8,1.9,205.5,0.00,22.6,24.5,"04:12:56",1
"20/07/25","04:30",10.6,23.1,96.0,1001.9,41.7,0.7,1.7,52.7,0.00,22.5,24.6,"04:28:24",1
"20/07/25","04:40",0.8,23.1,96.0,1002.2,102.6,0.8,1.8,132.7,0.00,22.5,24.4,"04:32:10",1
"20/07/25","04:50",0.4,23.1,96.0,1002.4,129.2,1.0,3.2,118.8,0.00,22.5,24.4,"04:43:12",1
"20/07/25","05:00",0.2,23.1,96.1,1002.4,151.3,0.8,1.9,195.4,0.00,22.5,24.6,"04:57:36",1
"20/07/25","05:10",0.6,23.1,96.1,1002.2,154.5,0.8,1.8,180.9,0.00,22.5,24.4,"05:09:28",1
"20/07/25","05:20",0.6,23.1,96.1,1001.9,167.2,0.6,1.8,177.4,0.00,22.5,24.3,"05:11:52",1
"20/07/25","05:30",1.2,23.1,96.1,1001.9,15.8,0.3,1.1,11.0,0.00,22.5,24.6,"05:25:36",1
"20/07/25","05:40",0.6,23.0,96.1,1002.2,251.3,0.5,1.0,258.0,0.00,22.4,24.3,"05:34:32",1
"20/07/25","05:50",0.4,23.1,96.2,1001.9,261.3,0.5,1.2,232.7,0.00,22.5,24.4,"05:47:12",1
"20/07/25","06:00",0.2,23.2,96.3,1001.7,212.8,0.6,1.2,230.1,0.00,22.6,24.4,"05:52:56",1
"20/07/25","06:10",0.2,23.2,96.2,1001.9,317.8,0.5,1.3,335.0,0.00,22.6,24.5,"06:09:52",1
"20/07/25","06:20",0.2,23.2,96.2,1002.2,312.4,0.6,1.2,349.4,0.00,22.6,24.3,"06:10:08",1
"20/07/25","06:30",0.2,23.2,96.3,1002.2,322.4,0.8,1.4,334.2,0.00,22.6,24.3,"06:21:04",1
"20/07/25","06:40",0.4,23.2,96.3,1002.4,263.5,0.8,1.8,237.4,0.00,22.6,24.4,"06:36:56",1
"20/07/25","06:50",0.4,23.2,96.3,1002.4,298.6,0.6,1.2,268.8,0.00,22.6,24.2,"06:46:24",1
"20/07/25","07:00",1.2,23.1,96.3,1002.6,302.7,0.7,1.6,298.3,0.00,22.5,24.4,"06:54:48",1
"20/07/25","07:10",1.0,23.2,96.4,1003.1,115.6,0.6,1.4,229.7,0.00,22.6,24.3,"07:08:40",1
"20/07/25","07:20",2.4,23.2,96.4,1003.1,289.5,0.7,1.7,231.3,0.00,22.6,24.4,"07:10:32",1
"20/07/25","07:30",0.4,23.3,96.4,1002.6,320.7,0.6,1.7,342.8,0.00,22.7,24.4,"07:21:54",1
"20/07/25","07:40",0.2,23.2,96.5,1002.6,339.3,0.5,0.9,96.7,0.00,22.7,24.4,"07:33:52",1
"20/07/25","07:50",0.6,23.3,96.5,1002.6,257.4,0.3,1.0,255.4,0.01,22.8,24.5,"07:49:44",1
"20/07/25","08:00",0.0,23.3,96.5,1002.6,305.3,0.6,1.4,347.1,0.01,22.8,24.3,"07:54:08",1
"20/07/25","08:10",0.0,23.4,96.5,1002.6,274.8,0.6,1.3,235.5,0.00,22.9,24.5,"08:06:08",1
"20/07/25","08:20",0.0,23.4,96.5,1002.4,266.0,0.7,1.6,227.5,0.00,22.9,24.2,"08:10:08",1
"20/07/25","08:30",0.2,23.5,96.5,1001.9,288.4,0.3,1.2,252.0,0.01,23.0,24.5,"08:20:32",1
"20/07/25","08:40",0.0,23.7,96.5,1002.4,327.0,0.6,1.4,332.3,0.03,23.1,24.3,"08:37:20",1
"20/07/25","08:50",0.0,23.8,96.5,1002.2,346.0,0.5,1.0,3.9,0.03,23.2,24.4,"08:45:04",1
"20/07/25","09:00",0.2,23.9,96.4,1001.9,278.4,0.6,1.2,342.4,0.02,23.3,24.5,"08:51:12",1
"20/07/25","09:10",2.0,24.1,96.5,1002.2,299.3,0.5,1.1,307.7,0.04,23.5,24.5,"09:06:48",1
"20/07/25","09:20",0.8,24.1,96.5,1002.2,265.8,0.7,1.1,331.6,0.07,23.5,24.5,"09:13:36",1
"20/07/25","09:30",0.0,24.3,96.5,1002.4,273.3,0.6,1.1,318.5,0.05,23.7,24.6,"09:20:32",1
"20/07/25","09:40",0.2,24.3,96.5,1002.2,265.5,0.6,1.6,275.7,0.06,23.7,24.5,"09:35:12",1
"20/07/25","09:50",0.0,24.7,96.4,1002.2,273.4,0.3,0.6,302.1,0.06,24.1,24.4,"09:43:04",1
"20/07/25","10:00",0.0,24.8,96.4,1002.2,271.9,0.3,0.9,316.8,0.06,24.2,24.4,"09:52:32",1
"20/07/25","10:10",0.0,24.8,96.3,1002.4,257.9,0.3,0.9,237.2,0.06,24.2,24.6,"10:07:32",1
"20/07/25","10:20",0.0,24.8,96.3,1002.4,245.9,0.7,1.8,228.3,0.05,24.2,24.6,"10:16:56",1
"20/07/25","10:30",0.0,24.6,96.5,1002.9,279.4,0.8,1.9,279.2,0.04,24.0,24.4,"10:21:52",1
"20/07/25","10:40",0.0,25.0,96.5,1003.1,331.2,0.8,1.2,333.9,0.10,24.4,24.7,"10:32:32",1
"20/07/25","10:50",0.0,25.3,96.4,1002.6,353.1,0.8,1.6,328.5,0.11,24.7,24.7,"10:40:56",1
"20/07/25","11:00",0.0,25.7,96.3,1002.4,15.7,0.2,0.9,83.1,0.16,25.1,24.7,"10:55:12",1
"20/07/25","11:10",0.0,25.9,96.3,1002.2,4.8,0.2,0.8,354.8,0.14,25.3,24.7,"11:00:08",1
"20/07/25","11:20",0.0,26.4,96.4,1001.9,9.1,0.3,1.0,11.5,0.23,25.8,24.8,"11:13:04",1
"20/07/25","11:30",0.0,26.0,96.2,1001.7,15.2,0.7,1.6,337.3,0.18,25.4,24.8,"11:25:12",1
"20/07/25","11:40",0.0,25.8,95.7,1001.9,165.3,0.7,1.4,218.6,0.12,25.1,25.0,"11:38:16",1
"20/07/25","11:50",0.2,26.3,95.8,1001.9,170.0,0.5,1.3,120.8,0.10,25.6,25.0,"11:41:36",1
"20/07/25","12:00",0.0,25.7,95.4,1002.2,153.8,0.6,1.4,122.7,0.04,24.9,25.1,"11:51:28",1
"20/07/25","12:10",0.0,25.5,95.6,1001.7,163.6,0.7,2.0,195.6,0.04,24.8,25.3,"12:02:16",1
"20/07/25","12:20",0.0,25.7,95.7,1001.9,237.9,0.6,1.4,218.9,0.04,25.0,25.4,"12:14:40",1
"20/07/25","12:30",0.0,26.0,95.6,1001.7,46.3,0.2,1.0,332.8,0.04,25.3,25.1,"12:20:56",1
"20/07/25","12:40",0.0,25.9,95.8,1001.9,11.4,0.7,1.8,345.8,0.04,25.2,25.3,"12:34:16",1
"20/07/25","12:50",0.0,25.9,95.7,1001.7,72.7,0.5,1.7,58.8,0.06,25.2,25.4,"12:46:32",1
"20/07/25","13:00",0.2,26.1,95.7,1001.9,263.8,0.7,1.9,228.0,0.08,25.4,25.2,"12:51:20",1
"20/07/25","13:10",0.0,25.8,95.8,1001.7,326.0,1.1,2.2,337.9,0.12,25.1,25.2,"13:08:08",1
"20/07/25","13:20",0.0,26.5,95.7,1001.5,274.0,0.3,1.1,352.2,0.14,25.8,25.5,"13:10:24",1
"20/07/25","13:30",0.0,26.8,95.5,1001.2,347.9,0.5,1.1,350.3,0.14,26.1,25.6,"13:22:40",1
"20/07/25","13:40",0.0,26.8,94.4,1001.5,204.8,0.5,1.6,203.2,0.14,25.9,25.7,"13:38:56",1
"20/07/25","13:50",0.0,25.5,94.5,1001.5,207.7,1.3,2.5,202.5,0.08,24.6,25.4,"13:41:44",1
"20/07/25","14:00",0.0,25.6,94.5,1001.9,207.1,1.3,2.5,206.7,0.03,24.7,25.6,"13:50:08",1
"20/07/25","14:10",0.0,25.7,94.3,1001.5,210.4,0.7,1.2,214.1,0.02,24.8,25.5,"14:00:08",1
"20/07/25","14:20",0.0,25.9,94.2,1001.5,240.8,0.5,1.0,226.6,0.04,24.9,25.7,"14:13:44",1
"20/07/25","14:30",0.8,26.0,94.2,1001.7,313.1,0.6,1.1,308.2,0.06,25.0,25.8,"14:23:44",1
"20/07/25","14:40",0.6,25.8,94.0,1001.9,292.3,0.5,1.2,252.4,0.03,24.8,25.5,"14:39:28",1
"20/07/25","14:50",0.6,25.3,94.1,1002.2,251.8,0.7,1.6,251.0,0.01,24.3,25.4,"14:43:28",1
"20/07/25","15:00",0.6,25.0,94.1,1002.4,156.2,1.0,2.7,196.9,0.00,24.0,25.7,"14:58:56",1
"20/07/25","15:10",0.2,24.3,94.3,1002.6,167.7,1.8,3.7,160.7,0.03,23.4,25.6,"15:04:16",1
"20/07/25","15:20",0.2,24.2,94.3,1002.4,142.0,1.2,3.2,149.6,0.01,23.3,25.7,"15:18:56",1
"20/07/25","15:30",0.0,24.3,94.3,1002.9,150.3,1.2,2.6,124.9,0.03,23.4,25.8,"15:26:48",1
"20/07/25","15:40",0.0,24.4,94.3,1002.4,116.3,1.1,3.1,108.4,0.03,23.5,25.5,"15:39:52",1
"20/07/25","15:50",0.0,24.6,94.3,1002.2,102.8,0.7,1.9,116.7,0.08,23.7,25.6,"15:42:40",1
"20/07/25","16:00",0.0,24.6,94.2,1002.6,103.3,0.7,1.7,110.4,0.08,23.6,25.4,"15:57:52",1
"20/07/25","16:10",0.0,24.5,94.1,1002.6,36.8,0.7,2.0,4.6,0.05,23.5,25.4,"16:02:24",1
"20/07/25","16:20",0.0,24.5,94.1,1002.2,54.3,0.5,1.2,68.1,0.04,23.5,25.6,"16:10:48",1
"20/07/25","16:30",0.0,24.5,94.0,1001.9,53.3,0.3,1.3,31.1,0.05,23.5,25.4,"16:23:28",1
"20/07/25","16:40",0.0,24.5,93.9,1002.2,288.8,0.6,1.1,328.9,0.01,23.5,25.6,"16:37:52",1
"20/07/25","16:50",1.6,24.3,93.8,1002.9,230.0,0.3,1.0,221.5,0.00,23.3,25.5,"16:41:44",1
"20/07/25","17:00",0.2,24.2,93.8,1003.4,282.4,0.6,1.1,315.2,0.00,23.2,25.3,"16:57:44",1
"20/07/25","17:10",0.0,24.2,93.8,1003.1,354.5,0.5,1.1,82.1,0.00,23.2,25.3,"17:02:24",1
"20/07/25","17:20",0.0,24.2,93.9,1002.9,346.0,0.5,1.3,340.8,0.00,23.2,25.6,"17:13:36",1
"20/07/25","17:30",0.0,24.3,93.9,1003.1,324.4,0.3,1.3,355.5,0.01,23.3,25.6,"17:20:40",1
"20/07/25","17:40",0.0,24.3,93.9,1002.9,281.7,0.7,1.7,219.0,0.01,23.3,25.5,"17:36:56",1
"20/07/25","17:50",0.0,24.3,93.9,1003.4,329.0,0.6,1.2,73.8,0.01,23.3,25.5,"17:40:08",1
"20/07/25","18:00",0.0,24.3,94.0,1003.4,241.3,0.5,1.3,235.5,0.01,23.3,25.2,"17:52:56",1
"20/07/25","18:10",0.0,24.4,93.9,1003.1,146.7,0.7,1.4,114.6,0.00,23.4,25.4,"18:00:02",1
"20/07/25","18:20",0.0,24.4,94.0,1003.6,127.6,0.8,1.8,149.5,0.00,23.4,25.3,"18:16:48",1
"20/07/25","18:30",0.0,24.3,94.1,1003.8,218.5,0.5,1.8,154.3,0.00,23.3,25.3,"18:20:16",1
"20/07/25","18:40",0.0,24.4,94.0,1003.8,155.0,0.6,1.3,229.1,0.00,23.4,25.4,"18:32:40",1
"20/07/25","18:50",0.0,24.3,94.1,1003.6,121.7,0.5,1.3,141.8,0.00,23.3,25.4,"18:43:44",1
"20/07/25","19:00",0.0,24.3,94.1,1003.8,349.0,0.7,1.2,352.4,0.00,23.3,25.3,"18:57:52",1
"20/07/25","19:10",0.0,24.2,94.2,1004.1,337.7,0.6,1.2,340.7,0.00,23.2,25.0,"19:08:56",1
"20/07/25","19:20",0.0,24.2,94.2,1004.1,295.2,0.6,1.1,339.1,0.00,23.2,25.5,"19:12:16",1
"20/07/25","19:30",0.0,24.1,94.2,1004.3,307.9,0.7,1.0,240.2,0.00,23.1,25.2,"19:28:48",1
"20/07/25","19:40",0.0,24.1,94.2,1004.1,309.4,0.7,1.1,7.7,0.00,23.1,25.3,"19:31:44",1
"20/07/25","19:50",0.0,24.1,94.3,1004.3,301.2,0.6,1.0,313.9,0.00,23.2,24.9,"19:48:08",1
"20/07/25","20:00",0.0,24.0,94.3,1004.3,333.3,0.7,1.3,357.6,0.00,23.1,25.3,"19:56:08",1
"20/07/25","20:10",0.0,23.9,94.4,1004.5,333.0,0.7,1.1,327.1,0.00,23.0,25.0,"20:02:32",1
"20/07/25","20:20",0.0,23.8,94.5,1004.5,322.2,0.8,1.3,320.2,0.00,22.9,25.0,"20:13:12",1
"20/07/25","20:30",0.0,23.8,94.6,1004.5,303.5,0.7,1.6,337.1,0.00,22.9,25.0,"20:29:52",1
"20/07/25","20:40",0.0,23.8,94.6,1004.5,329.2,0.6,1.2,338.3,0.00,22.9,25.2,"20:30:08",1
"20/07/25","20:50",0.0,23.7,94.6,1004.5,312.7,0.7,1.0,332.3,0.00,22.8,25.1,"20:40:40",1
"20/07/25","21:00",0.0,23.6,94.7,1005.5,292.8,0.6,1.0,319.3,0.00,22.7,25.1,"20:50:56",1
"20/07/25","21:10",0.0,23.7,94.8,1004.8,309.5,0.8,1.7,334.4,0.00,22.9,25.0,"21:09:04",1
"20/07/25","21:20",0.0,23.7,94.8,1005.0,292.2,0.6,1.0,323.6,0.00,22.9,25.0,"21:10:40",1
"20/07/25","21:30",0.0,23.7,94.9,1005.5,322.4,0.8,1.4,324.6,0.00,22.9,25.1,"21:26:40",1
"20/07/25","21:40",0.0,23.7,94.9,1005.0,303.8,0.6,2.0,349.4,0.00,22.9,24.8,"21:31:28",1
"20/07/25","21:50",0.2,23.7,94.9,1005.2,299.4,0.7,1.2,297.7,0.00,22.9,25.1,"21:46:40",1
"20/07/25","22:00",0.0,23.8,94.9,1005.5,3.1,0.5,1.1,327.1,0.00,23.0,24.8,"21:55:36",1
"20/07/25","22:10",0.0,23.8,95.0,1005.5,316.6,0.7,1.2,304.2,0.00,23.0,24.9,"22:06:48",1
"20/07/25","22:20",0.0,23.8,95.0,1006.0,302.5,1.0,2.2,341.7,0.00,23.0,24.9,"22:17:12",1
"20/07/25","22:30",0.0,23.8,95.0,1005.7,290.2,0.5,1.4,239.0,0.00,23.0,24.9,"22:22:24",1
"20/07/25","22:40",0.0,23.8,95.1,1006.0,311.9,0.3,0.6,37.5,0.00,23.0,24.7,"22:35:04",1
"20/07/25","22:50",0.0,23.8,95.1,1006.0,309.0,0.8,1.2,310.6,0.00,23.0,24.9,"22:40:56",1
"20/07/25","23:00",0.0,23.7,95.2,1005.7,282.2,0.3,0.8,281.4,0.00,22.9,24.7,"22:52:32",1
"20/07/25","23:10",0.0,23.7,95.2,1005.7,307.8,0.7,1.4,318.2,0.00,22.9,24.7,"23:09:36",1
"20/07/25","23:20",0.0,23.7,95.2,1005.5,340.7,1.0,1.8,324.4,0.00,22.9,24.8,"23:10:16",1
"20/07/25","23:30",0.0,23.6,95.3,1006.2,300.6,0.6,1.1,344.2,0.00,22.8,24.8,"23:21:28",1
"20/07/25","23:40",0.0,23.6,95.4,1006.0,312.5,1.1,1.9,341.2,0.00,22.9,24.7,"23:39:04",1
"20/07/25","23:50",0.0,23.5,95.4,1006.2,299.8,0.8,1.7,340.8,0.00,22.8,24.7,"23:40:08",1
"20/07/25","24:00",0.0,23.5,95.4,1005.7,308.8,0.5,1.1,315.2,0.00,22.8,24.8,"23:51:04",1
